FW0180 Weather Reports


Display with metric or nautical units.
time (UTC)temp
F
wind
direction
speed
MPH
gust
MPH
rain 1hr
in
rain 24hr
in
rain mn
in
humidity
%
barometer
mb
20181114005511 60 254 0.0 0.0 0.00 0.00 0.00 23 1026.8
20181114005011 60 254 0.0 0.0 0.00 0.00 0.00 22 1026.8
20181114004511 60 254 0.0 0.0 0.00 0.00 0.00 21 1026.8
20181114004010 61 254 0.0 0.0 0.00 0.00 0.00 22 1026.8
20181114003510 61 254 0.0 0.0 0.00 0.00 0.00 22 1026.7
20181114003010 62 254 0.0 0.0 0.00 0.00 0.00 21 1026.7
20181114002510 62 254 0.0 0.0 0.00 0.00 0.00 22 1026.7
20181114002010 62 254 0.0 0.0 0.00 0.00 0.00 22 1026.7
20181114001510 63 254 0.0 0.0 0.00 0.00 0.00 20 1026.6
20181114001010 63 254 0.0 0.0 0.00 0.00 0.00 19 1026.6
20181114000510 63 254 0.0 0.0 0.00 0.00 0.00 19 1026.6
20181114000010 64 254 0.0 0.0 0.00 0.00 0.00 18 1026.6
20181113235510 64 254 1.0 0.0 0.00 0.00 0.00 17 1026.6
20181113235010 64 252 3.0 0.0 0.00 0.00 0.00 17 1026.6
20181113234510 65 247 0.0 0.0 0.00 0.00 0.00 16 1026.6
20181113234010 65 245 1.0 0.0 0.00 0.00 0.00 17 1026.6
20181113233510 66 242 2.0 0.0 0.00 0.00 0.00 16 1026.6
20181113233010 66 64 0.0 0.0 0.00 0.00 0.00 14 1026.6
20181113232510 66 64 0.0 0.0 0.00 0.00 0.00 14 1026.6
20181113232011 66 64 0.0 0.0 0.00 0.00 0.00 14 1026.6
20181113231510 66 76 0.0 0.0 0.00 0.00 0.00 14 1026.6
20181113231010 66 76 0.0 0.0 0.00 0.00 0.00 14 1026.7
20181113230510 66 84 6.0 0.0 0.00 0.00 0.00 15 1026.7
20181113230011 66 98 1.0 0.0 0.00 0.00 0.00 15 1026.8
20181113225510 66 98 0.0 0.0 0.00 0.00 0.00 15 1026.8
20181113225010 67 104 0.0 0.0 0.00 0.00 0.00 14 1026.8
20181113224510 67 139 0.0 0.0 0.00 0.00 0.00 15 1026.8
20181113224011 67 141 0.0 0.0 0.00 0.00 0.00 14 1026.8
20181113223510 67 128 2.0 0.0 0.00 0.00 0.00 14 1026.9
20181113223010 67 190 1.0 0.0 0.00 0.00 0.00 14 1026.9
20181113222510 67 259 2.0 0.0 0.00 0.00 0.00 14 1027.0
20181113222010 67 191 3.0 0.0 0.00 0.00 0.00 14 1027.1
20181113221510 67 192 2.0 0.0 0.00 0.00 0.00 15 1027.1
20181113221010 67 200 4.0 0.0 0.00 0.00 0.00 14 1027.1
20181113220510 67 219 4.0 0.0 0.00 0.00 0.00 15 1027.3
20181113220010 67 191 0.0 0.0 0.00 0.00 0.00 14 1027.4
20181113215510 67 214 1.0 0.0 0.00 0.00 0.00 14 1027.4
20181113215010 67 244 0.0 0.0 0.00 0.00 0.00 15 1027.5
20181113214510 67 238 1.0 0.0 0.00 0.00 0.00 15 1027.5
20181113214010 67 217 3.0 0.0 0.00 0.00 0.00 14 1027.6
20181113213510 67 194 0.0 0.0 0.00 0.00 0.00 14 1027.7
20181113213010 67 194 1.0 0.0 0.00 0.00 0.00 14 1027.7
20181113212510 67 167 2.0 0.0 0.00 0.00 0.00 14 1027.8
20181113212010 66 66 2.0 0.0 0.00 0.00 0.00 15 1027.8
20181113211511 66 65 0.0 0.0 0.00 0.00 0.00 14 1027.9
20181113211010 66 61 0.0 0.0 0.00 0.00 0.00 14 1028.1
20181113210510 66 61 2.0 0.0 0.00 0.00 0.00 14 1028.2
20181113210010 66 65 1.0 0.0 0.00 0.00 0.00 15 1028.2
20181113205510 65 65 0.0 0.0 0.00 0.00 0.00 14 1028.3
20181113205010 66 66 4.0 0.0 0.00 0.00 0.00 13 1028.4
20181113204510 66 141 0.0 0.0 0.00 0.00 0.00 14 1028.4
20181113204010 66 134 5.0 0.0 0.00 0.00 0.00 14 1028.6
20181113203510 66 124 1.0 0.0 0.00 0.00 0.00 15 1028.6
20181113203010 66 115 1.0 0.0 0.00 0.00 0.00
20181113202510 65 152 0.0 0.0 0.00 0.00 0.00 15 1028.9
20181113202010 65 132 0.0 0.0 0.00 0.00 0.00 14 1028.9
20181113201510 64 115 1.0 0.0 0.00 0.00 0.00 13 1029.1
20181113201010 64 155 5.0 0.0 0.00 0.00 0.00 14 1029.2
20181113200510 64 9 0.0 0.0 0.00 0.00 0.00 14 1029.3
20181113200010 64 105 2.0 0.0 0.00 0.00 0.00 14 1029.4
20181113195510 64 113 2.0 0.0 0.00 0.00 0.00 14 1029.5
20181113195010 64 106 2.0 0.0 0.00 0.00 0.00 14 1029.5
20181113194510 64 128 0.0 0.0 0.00 0.00 0.00 14 1029.6
20181113194010 63 126 0.0 0.0 0.00 0.00 0.00 15 1029.7
20181113193510 63 110 1.0 0.0 0.00 0.00 0.00 15 1029.9
20181113193010 63 58 1.0 0.0 0.00 0.00 0.00 14 1030.0
20181113192510 63 63 1.0 0.0 0.00 0.00 0.00 15 1030.0
20181113192010 62 21 1.0 0.0 0.00 0.00 0.00 15 1030.2
20181113191511 62 68 6.0 0.0 0.00 0.00 0.00 16 1030.3
20181113191010 62 118 2.0 0.0 0.00 0.00 0.00 16 1030.4
20181113190510 62 118 2.0 0.0 0.00 0.00 0.00 15 1030.5
20181113190011 62 56 1.0 0.0 0.00 0.00 0.00 16 1030.6
20181113185510 62 40 0.0 0.0 0.00 0.00 0.00 16 1030.7
20181113185010 62 121 4.0 0.0 0.00 0.00 0.00 15 1030.8
20181113184510 62 15 0.0 0.0 0.00 0.00 0.00 15 1031.0
20181113184011 62 38 3.0 0.0 0.00 0.00 0.00 15 1031.1
20181113183510 62 65 2.0 0.0 0.00 0.00 0.00 16 1031.1
20181113183010 61 76 3.0 0.0 0.00 0.00 0.00 17 1031.3
20181113182510 61 89 4.0 0.0 0.00 0.00 0.00 17 1031.3
20181113182010 60 108 1.0 0.0 0.00 0.00 0.00 18 1031.5
20181113181510 60 100 2.0 0.0 0.00 0.00 0.00 17 1031.5
20181113181010 60 98 1.0 0.0 0.00 0.00 0.00 16 1031.5
20181113180510 60 92 9.0 0.0 0.00 0.00 0.00 16 1031.6
20181113180010 59 61 1.0 0.0 0.00 0.00 0.00 17 1031.7
20181113175510 60 87 5.0 0.0 0.00 0.00 0.00 16 1031.8
20181113175011 60 97 4.0 0.0 0.00 0.00 0.00 17 1031.9
20181113174510 60 83 2.0 0.0 0.00 0.00 0.00 18 1031.9
20181113174010 59 128 5.0 0.0 0.00 0.00 0.00 19 1032.0
20181113173510 59 68 3.0 0.0 0.00 0.00 0.00 18 1031.9
20181113173010 59 119 5.0 0.0 0.00 0.00 0.00 18 1032.0
20181113172510 59 115 2.0 0.0 0.00 0.00 0.00 17 1032.0
20181113172010 60 111 4.0 0.0 0.00 0.00 0.00 18 1032.1
20181113171511 59 135 1.0 0.0 0.00 0.00 0.00 18 1032.1
20181113171012 59 98 1.0 0.0 0.00 0.00 0.00 19 1032.1
20181113170510 59 136 10.0 0.0 0.00 0.00 0.00
20181113170011 59 136 1.0 0.0 0.00 0.00 0.00 19 1032.2
20181113165512 58 68 6.0 0.0 0.00 0.00 0.00 20 1032.3
20181113165011 58 98 6.0 0.0 0.00 0.00 0.00 18 1032.3
20181113164511 58 64 6.0 0.0 0.00 0.00 0.00 18 1032.3
20181113164011 58 71 3.0 0.0 0.00 0.00 0.00 18 1032.4
20181113163511 58 46 2.0 0.0 0.00 0.00 0.00 18 1032.5
20181113163011 57 72 3.0 0.0 0.00 0.00 0.00 18 1032.5
20181113162511 57 68 3.0 0.0 0.00 0.00 0.00 19 1032.4
20181113162011 57 78 3.0 0.0 0.00 0.00 0.00 19 1032.4
20181113161511 57 38 3.0 0.0 0.00 0.00 0.00 20 1032.3
20181113161011 56 65 2.0 0.0 0.00 0.00 0.00 19 1032.3
20181113160511 56 59 5.0 0.0 0.00 0.00 0.00 19 1032.3
20181113160011 56 20 4.0 0.0 0.00 0.00 0.00 20 1032.3
20181113155511 56 49 2.0 0.0 0.00 0.00 0.00 19 1032.2
20181113155011 55 63 1.0 0.0 0.00 0.00 0.00 21 1032.2
20181113154511 55 64 2.0 0.0 0.00 0.00 0.00 21 1032.3
20181113154011 55 67 3.0 0.0 0.00 0.00 0.00 22 1032.2
20181113153511 54 34 0.0 0.0 0.00 0.00 0.00 21 1032.2
20181113153011 53 40 1.0 0.0 0.00 0.00 0.00 23 1032.1
20181113152511 53 39 2.0 0.0 0.00 0.00 0.00 23 1032.1
20181113152011 52 39 0.0 0.0 0.00 0.00 0.00 24 1032.2
20181113151511 51 39 0.0 0.0 0.00 0.00 0.00 25 1032.1
20181113151011 50 37 2.0 0.0 0.00 0.00 0.00 26 1032.0
20181113150511 49 38 1.0 0.0 0.00 0.00 0.00 27 1032.0
20181113150011 48 35 0.0 0.0 0.00 0.00 0.00 28 1031.9
20181113145511 0 0.0 0.0 0.00 0.00 0.00 1031.9
20181113145011 0 0.0 0.0 0.00 0.00 0.00 1031.9
20181113144511 0 0.0 0.0 0.00 0.00 0.00 1031.9
20181113144011 0 0.0 0.0 0.00 0.00 0.00 1031.8
20181113143511 0 0.0 0.0 0.00 0.00 0.00 1031.9
20181113143011 0 0.0 0.0 0.00 0.00 0.00 1031.8
20181113142511 0 0.0 0.0 0.00 0.00 0.00 1031.8
20181113142011 0 0.0 0.0 0.00 0.00 0.00 1031.9
20181113141510 0 0.0 0.0 0.00 0.00 0.00 1031.8
20181113141010 0 0.0 0.0 0.00 0.00 0.00 1031.7
20181113140510 42 28 0.0 0.0 0.00 0.00 0.00 36 1031.8
20181113140010 42 28 0.0 0.0 0.00 0.00 0.00 36 1031.6
20181113135511 42 28 0.0 0.0 0.00 0.00 0.00 36 1031.6
20181113135010 42 28 0.0 0.0 0.00 0.00 0.00 36 1031.5
20181113134510 43 28 0.0 0.0 0.00 0.00 0.00 40 1031.5
20181113134010 43 28 0.0 0.0 0.00 0.00 0.00 42 1031.4
20181113133510 43 28 0.0 0.0 0.00 0.00 0.00 41 1031.4
20181113133010 43 28 0.0 0.0 0.00 0.00 0.00 41 1031.2
20181113132510 43 28 0.0 0.0 0.00 0.00 0.00 39 1031.2
20181113132010 43 28 0.0 0.0 0.00 0.00 0.00 39 1031.1
20181113131510 44 28 0.0 0.0 0.00 0.00 0.00 38 1031.1
20181113131010 44 28 0.0 0.0 0.00 0.00 0.00 38 1031.1
20181113130510 44 28 0.0 0.0 0.00 0.00 0.00 38 1031.1
20181113130010 45 28 0.0 0.0 0.00 0.00 0.00 37 1031.0
20181113125510 45 28 0.0 0.0 0.00 0.00 0.00 37 1031.1
20181113125010 45 28 0.0 0.0 0.00 0.00 0.00 36 1030.9
20181113124510 45 28 0.0 0.0 0.00 0.00 0.00 35 1031.0
20181113124010 46 28 0.0 0.0 0.00 0.00 0.00 33 1030.9
20181113123510 46 28 0.0 0.0 0.00 0.00 0.00 34 1030.8
20181113123010 46 28 0.0 0.0 0.00 0.00 0.00 33 1030.8
20181113122510 46 28 0.0 0.0 0.00 0.00 0.00 30 1030.8
20181113122010 46 28 0.0 0.0 0.00 0.00 0.00 30 1030.7
20181113121510 46 28 0.0 0.0 0.00 0.00 0.00 30 1030.8
20181113121010 47 28 0.0 0.0 0.00 0.00 0.00 29 1030.7
20181113120510 47 28 0.0 0.0 0.00 0.00 0.00 30 1030.7
20181113120011 47 28 0.0 0.0 0.00 0.00 0.00 30 1030.7
20181113115510 48 28 0.0 0.0 0.00 0.00 0.00 30 1030.7
20181113115010 48 28 0.0 0.0 0.00 0.00 0.00 31 1030.6
20181113114510 48 28 0.0 0.0 0.00 0.00 0.00 31 1030.5
20181113114010 49 28 0.0 0.0 0.00 0.00 0.00 29 1030.5
20181113113510 49 28 0.0 0.0 0.00 0.00 0.00 28 1030.6
20181113113011 50 28 0.0 0.0 0.00 0.00 0.00 28 1030.5
20181113112510 50 28 0.0 0.0 0.00 0.00 0.00 27 1030.5
20181113112010 50 28 0.0 0.0 0.00 0.00 0.00 26 1030.5
20181113111510 50 28 0.0 0.0 0.00 0.00 0.00 26 1030.5
20181113111010 51 28 0.0 0.0 0.00 0.00 0.00 24 1030.5
20181113110511 51 28 0.0 0.0 0.00 0.00 0.00 23 1030.4
20181113110010 51 11 1.0 0.0 0.00 0.00 0.00 23 1030.4
20181113105510 50 13 3.0 0.0 0.00 0.00 0.00 23 1030.4
20181113105010 51 76 0.0 0.0 0.00 0.00 0.00 24 1030.3
20181113104510 51 77 2.0 0.0 0.00 0.00 0.00 24 1030.3
20181113104010 51 78 0.0 0.0 0.00 0.00 0.00 24 1030.4
20181113103511 52 78 0.0 0.0 0.00 0.00 0.00 23 1030.3
20181113103010 52 78 1.0 0.0 0.00 0.00 0.00 23 1030.4
20181113102510 52 83 2.0 0.0 0.00 0.00 0.00 24 1030.3
20181113102010 53 83 0.0 0.0 0.00 0.00 0.00 23 1030.3
20181113101510 53 83 0.0 0.0 0.00 0.00 0.00 22 1030.3
20181113101010 54 83 0.0 0.0 0.00 0.00 0.00 21 1030.2
20181113100510 54 83 0.0 0.0 0.00 0.00 0.00 20 1030.2
20181113100010 54 83 2.0 0.0 0.00 0.00 0.00 20 1030.2
20181113095510 54 83 0.0 0.0 0.00 0.00 0.00 19 1030.1
20181113095010 54 360 3.0 0.0 0.00 0.00 0.00 20 1030.1
20181113094510 54 275 4.0 0.0 0.00 0.00 0.00 20 1030.1
20181113094010 54 355 0.0 0.0 0.00 0.00 0.00 20 1030.0
20181113093510 54 26 5.0 0.0 0.00 0.00 0.00 20 1029.8
20181113093011 54 18 3.0 0.0 0.00 0.00 0.00 20 1029.8
20181113092510 54 31 4.0 0.0 0.00 0.00 0.00 20 1029.9
20181113092010 55 309 6.0 0.0 0.00 0.00 0.00 19 1029.8
20181113091510 55 32 5.0 0.0 0.00 0.00 0.00 19 1029.8
20181113091010 55 34 9.0 0.0 0.00 0.00 0.00 19 1029.7
20181113090510 55 44 4.0 0.0 0.00 0.00 0.00 19 1029.5
20181113090010 55 20 6.0 0.0 0.00 0.00 0.00 19 1029.5
20181113085511 55 63 8.0 0.0 0.00 0.00 0.00 19 1029.5
20181113085010 55 96 9.0 0.0 0.00 0.00 0.00 19 1029.5
20181113084512 55 46 5.0 0.0 0.00 0.00 0.00 19 1029.4
20181113084011 55 33 11.0 0.0 0.00 0.00 0.00 19 1029.3
20181113083511 55 34 10.0 0.0 0.00 0.00 0.00 19 1029.3
20181113083010 55 25 3.0 0.0 0.00 0.00 0.00 19 1029.2
20181113082510 55 15 11.0 0.0 0.00 0.00 0.00 18 1029.0
20181113082010 55 51 4.0 0.0 0.00 0.00 0.00 18 1029.1
20181113081510 55 38 8.0 0.0 0.00 0.00 0.00 18 1029.1
20181113081010 55 21 3.0 0.0 0.00 0.00 0.00 19 1029.1
20181113080510 55 39 7.0 0.0 0.00 0.00 0.00 18 1029.0
20181113080011 55 47 4.0 0.0 0.00 0.00 0.00 18 1028.9
20181113075511 55 41 5.0 0.0 0.00 0.00 0.00 18 1028.9
20181113075010 55 46 6.0 0.0 0.00 0.00 0.00 17 1028.9
20181113074510 56 59 3.0 0.0 0.00 0.00 0.00 17 1028.8
20181113074010 56 27 10.0 0.0 0.00 0.00 0.00 18 1028.7
20181113073510 56 38 9.0 0.0 0.00 0.00 0.00 17 1028.5
20181113073010 56 27 13.0 0.0 0.00 0.00 0.00 16 1028.6
20181113072510 56 355 6.0 0.0 0.00 0.00 0.00 16 1028.7
20181113072010 56 85 5.0 0.0 0.00 0.00 0.00 16 1028.7
20181113071510 56 69 5.0 0.0 0.00 0.00 0.00 15 1028.8
20181113071010 56 28 3.0 0.0 0.00 0.00 0.00 15 1028.9
20181113070510 56 33 12.0 0.0 0.00 0.00 0.00 15 1028.9
20181113070011 56 68 10.0 0.0 0.00 0.00 0.00 14 1028.9
20181113065510 56 82 8.0 0.0 0.00 0.00 0.00 14 1028.7
20181113065010 56 10 1.0 0.0 0.00 0.00 0.00 14 1028.6
20181113064510 56 20 12.0 0.0 0.00 0.00 0.00 14 1028.5
20181113064010 56 54 4.0 0.0 0.00 0.00 0.00 13 1028.5
20181113063510 57 17 3.0 0.0 0.00 0.00 0.00 12 1028.4
20181113063010 57 31 8.0 0.0 0.00 0.00 0.00 12 1028.3
20181113062511 57 35 5.0 0.0 0.00 0.00 0.00 12 1028.5
20181113062010 57 28 5.0 0.0 0.00 0.00 0.00 12 1028.6
20181113061510 57 318 10.0 0.0 0.00 0.00 0.00 11 1028.5
20181113061010 57 32 9.0 0.0 0.00 0.00 0.00 12 1028.5
20181113060510 57 27 8.0 0.0 0.00 0.00 0.00 11 1028.4
20181113060011 57 46 7.0 0.0 0.00 0.00 0.00 11 1028.5
20181113055510 57 9 5.0 0.0 0.00 0.00 0.00 11 1028.6
20181113055010 57 38 6.0 0.0 0.00 0.00 0.00 11 1028.7
20181113054510 57 12 5.0 0.0 0.00 0.00 0.00 10 1028.8
20181113054011 58 37 6.0 0.0 0.00 0.00 0.00 10 1028.9
20181113053510 58 17 6.0 0.0 0.00 0.00 0.00 10 1028.9
20181113053010 58 10 4.0 0.0 0.00 0.00 0.00 10 1028.7
20181113052510 58 348 5.0 0.0 0.00 0.00 0.00 10 1028.5
20181113052011 58 41 4.0 0.0 0.00 0.00 0.00 10 1028.3
20181113051510 58 33 6.0 0.0 0.00 0.00 0.00 10 1028.3
20181113051010 58 276 3.0 0.0 0.00 0.00 0.00 10 1028.3
20181113050510 58 355 4.0 0.0 0.00 0.00 0.00 10 1028.3
20181113050011 58 23 5.0 0.0 0.00 0.00 0.00 10 1028.4
20181113045510 58 341 7.0 0.0 0.00 0.00 0.00 10 1028.2
20181113045010 58 325 4.0 0.0 0.00 0.00 0.00 10 1028.1
20181113044510 58 13 4.0 0.0 0.00 0.00 0.00 10 1028.2
20181113044010 58 59 3.0 0.0 0.00 0.00 0.00 10 1028.2
20181113043511 58 336 11.0 0.0 0.00 0.00 0.00 10 1028.2
20181113043011 58 24 2.0 0.0 0.00 0.00 0.00 10 1028.3
20181113042511 58 30 1.0 0.0 0.00 0.00 0.00 10 1028.2
20181113042010 58 44 4.0 0.0 0.00 0.00 0.00 9 1028.0
20181113041510 58 355 7.0 0.0 0.00 0.00 0.00 9 1028.1
20181113041010 58 355 6.0 0.0 0.00 0.00 0.00 9 1028.1
20181113040139 58 26 6.0 0.0 0.00 0.00 0.00 10 1028.0
20181113035137 57 10 1.0 0.0 0.00 0.00 0.00 11 1027.9
20181113034138 58 32 1.0 0.0 0.00 0.00 0.00 11 1027.9
20181113033137 58 38 0.0 0.0 0.00 0.00 0.00 12 1027.7
20181113032137 58 39 4.0 0.0 0.00 0.00 0.00 11 1027.4
20181113031233 58 48 4.0 0.0 0.00 0.00 0.00 11 1027.3
20181113030138 58 44 4.0 0.0 0.00 0.00 0.00 11 1027.2
20181113025136 59 28 0.0 0.0 0.00 0.00 0.00 11 1027.1
20181113024137 59 18 0.0 0.0 0.00 0.00 0.00 11 1027.1
20181113023137 59 5 0.0 0.0 0.00 0.00 0.00 11 1026.7
20181113022623 59 51 4.0 0.0 0.00 0.00 0.00 11 1026.7
20181113021623 60 5 0.0 0.0 0.00 0.00 0.00 11 1026.5
20181113020626 60 17 2.0 0.0 0.00 0.00 0.00 11 1026.3
20181113020011 60 50 2.0 0.0 0.00 0.00 0.00 11 1026.2
20181113015511 60 51 2.0 0.0 0.00 0.00 0.00 11 1026.2
20181113015011 60 355 2.0 0.0 0.00 0.00 0.00 11 1027.0
20181113014511 60 347 0.0 0.0 0.00 0.00 0.00 11 1026.9
20181113014011 60 15 3.0 0.0 0.00 0.00 0.00 11 1026.8
20181113013511 60 62 4.0 0.0 0.00 0.00 0.00 11 1026.8
20181113013011 60 53 0.0 0.0 0.00 0.00 0.00 11 1026.6
20181113012511 60 351 1.0 0.0 0.00 0.00 0.00 11 1026.5
20181113012011 61 289 0.0 0.0 0.00 0.00 0.00 11 1026.4
20181113011511 61 49 2.0 0.0 0.00 0.00 0.00 11 1026.4
20181113011011 61 44 0.0 0.0 0.00 0.00 0.00 11 1026.2
20181113010511 61 39 0.0 0.0 0.00 0.00 0.00 11 1026.0
20181113010011 61 25 1.0 0.0 0.00 0.00 0.00 11 1025.9